Location: ActonStarParty
(42.4766°N, 71.4538°W)
Time: 19:24:27
(UTC-04:00)

Daily predictions for brighter satellites

Satellite Brightness Start Highest point End
(mag) Time Altitude Azimuth Time Altitude Azimuth Time Altitude Azimuth
Cosmos 2219 4.3 19:49:35 10° NW 19:54:56 46° WSW 20:00:16 10° S
Meteor 1-11 Rocket 4.3 19:50:41 10° SSW 19:56:12 63° WNW 20:01:41 10° N
NOSS 2-1 (E) 3.5 19:52:29 10° SW 19:56:22 86° NW 20:00:56 10° NE
Lacrosse 5 3.2 19:59:38 10° NNW 20:04:02 28° NNE 20:08:24 10° E
EO 1 Delta rocket 4.2 20:01:37 10° NNE 20:06:10 50° E 20:11:19 10° S
OTV 4 1.8 20:04:25 10° WSW 20:07:02 28° S 20:09:37 10° SE
Cosmos 1697 Rocket 3.8 20:04:30 10° SSE 20:08:43 22° E 20:12:56 10° NE
Meteor 1-29 4.3 20:07:32 10° N 20:10:52 45° WNW 20:14:11 10° SSW
Meteor 2-4 Rocket 4.3 20:05:59 10° NNW 20:11:47 67° W 20:17:38 10° S
Meteor 2-16 Rocket 4.4 20:06:07 10° S 20:12:11 78° E 20:18:16 10° N
Helios 1B rocket 3.9 20:08:47 10° N 20:12:42 43° WNW 20:16:36 10° SW
Tiangong 1 1.0 20:09:51 10° W 20:12:57 84° N 20:15:57 11° E
Cosmos 2278 3.7 20:07:33 10° S 20:13:09 66° ESE 20:18:48 10° NNE
Cosmos 1975 3.4 20:15:31 10° SSE 20:19:19 38° E 20:23:08 10° NNE
Cosmos 1821 Rocket 4.2 20:13:17 10° SSW 20:19:23 76° W 20:25:30 10° N
BREEZE-M DEB (TANK) 4.3 20:16:35 10° NW 20:19:34 39° NNE 20:27:23 10° E
Cosmos 1605 Rocket 4.0 20:16:07 10° S 20:22:23 68° E 20:28:37 10° NNE
Okean 2 3.8 20:18:44 10° NNW 20:22:53 66° W 20:26:59 10° S
Cosmos 2369 3.6 20:21:12 10° SSW 20:26:51 75° ESE 20:32:33 10° NNE
Lacrosse 5 rocket 1.0 20:23:21 10° NW 20:27:06 74° NE 20:29:46 17° SE
H-2A R/B 2.9 20:24:19 10° S 20:28:11 78° WSW 20:32:08 10° NNW
NOSS 7 (D) 4.5 20:24:55 10° SW 20:28:21 80° NW 20:31:45 10° NE
Cosmos 1980 Rocket 3.4 20:27:15 10° SE 20:31:18 20° E 20:35:22 10° NE
Meteor 1-12 Rocket 4.2 20:30:47 10° S 20:36:28 71° E 20:42:17 10° NNE
NOSS 3-4 (A) 4.3 20:30:09 10° NW 20:37:05 62° WSW 20:44:24 10° SSE
NOSS 3-4 (C) 4.2 20:30:16 10° NW 20:37:13 63° WSW 20:44:32 10° SSE
CZ-4 DEB 2.9 20:38:27 20° SE 20:40:24 53° ENE 20:43:28 10° N
YAOGAN 11 4.2 20:36:31 12° SSE 20:40:33 60° ENE 20:44:58 10° N
SJ-11-01 4.3 20:40:10 13° SSE 20:44:20 64° ENE 20:49:00 10° N
H-2A R/B 2.8 20:46:30 23° ESE 20:48:07 32° ENE 20:51:49 10° N
Cosmos 1461 3.7 20:45:11 10° NW 20:49:04 44° WSW 20:52:18 13° S
Cosmos 1626 Rocket 3.6 20:46:54 10° N 20:51:20 82° W 20:55:41 10° S
OAO 2 Rocket 4.1 20:47:28 10° WSW 20:52:00 34° S 20:54:03 25° SE
Cosmos 2298 Rocket 4.0 20:47:00 10° NNW 20:52:19 69° ENE 20:55:58 20° SSE
Cosmos 1939 Rocket 3.0 20:50:49 22° SE 20:53:16 58° ENE 20:57:23 10° N
Cosmos 2263 Rocket 4.3 20:56:04 10° NNE 20:57:38 11° NE 20:59:14 10° ENE
Cosmos 2227 Rocket 3.0 20:53:06 10° NW 20:58:34 51° WSW 21:04:00 10° S
ASTEX 1 4.3 20:54:17 10° NNE 20:58:41 30° E 20:59:48 27° ESE
Cosmos 1602 Rocket 3.9 20:55:44 10° NNW 21:00:11 66° W 21:04:34 10° S
deb Chang Zheng 4 4.0 20:56:05 10° NNE 21:00:18 40° E 21:02:03 27° SSE
Envisat 3.0 20:57:13 21° SSE 21:00:35 65° ENE 21:05:38 10° N
Cosmos 1656 3.6 20:55:20 10° SSW 21:00:57 81° ESE 21:06:32 10° NNE
Cosmos 2322 Rocket 4.3 21:06:19 10° ENE 21:06:19 10° ENE 21:06:19 10° ENE
Cosmos 1937 Rocket 3.6 20:58:35 10° NNW 21:03:48 57° ENE 21:06:20 29° SE
Cosmos 1459 Rocket 4.0 20:59:20 10° S 21:05:13 58° E 21:11:13 10° NNE
Cosmos 1500 3.0 21:02:27 11° S 21:06:00 88° E 21:09:47 10° N
H-2A R/B 3.8 21:08:13 14° ENE 21:08:48 15° ENE 21:11:27 10° NNE
Iridium 4 Rocket 3.7 21:04:17 10° N 21:09:23 67° W 21:14:00 10° S
ALOS 4.4 21:06:53 10° SSW 21:10:46 26° W 21:14:39 10° NW
Cosmos 2084 3.3 21:09:19 10° NW 21:13:23 84° WSW 21:14:49 41° SSE
Cosmos 2297 Rocket 2.8 21:08:34 10° NNW 21:14:03 53° WSW 21:18:31 15° S
Cosmos 990 Rocket 4.1 21:12:51 10° NNW 21:18:02 56° ENE 21:19:46 38° ESE
Cosmos 1340 2.9 21:14:35 10° N 21:18:17 48° ENE 21:18:24 48° E
Cosmos 2150 Rocket 4.0 21:13:38 10° NNW 21:18:48 80° WSW 21:21:30 29° S
Cosmos 2098 Rocket 4.5 21:17:28 29° SE 21:20:12 42° E 21:25:47 10° NNE
RESURS DK-1 2.3 21:16:24 10° NNW 21:20:33 71° ENE 21:21:23 53° SE
CZ-3C R/B 4.3 20:55:08 10° W 21:22:02 24° SW 21:28:20 14° S
Cosmos 2058 Rocket 3.9 21:26:13 35° ENE 21:26:13 35° ENE 21:29:49 10° NNE
YAOGAN 6 2.9 21:26:58 51° ENE 21:26:58 51° ENE 21:30:23 10° N
SPOT 1/Viking Rocket 4.0 21:26:21 38° E 21:27:25 43° ENE 21:32:21 10° N
DELTA 2 R/B (1) 4.1 21:24:27 10° W 21:29:44 45° SSW 21:31:01 38° SSE
BREEZE-M DEB (TANK) 3.6 21:16:06 10° WSW 21:30:12 77° SSE 21:32:42 30° ENE
ERS-1 Rocket 3.7 21:27:56 16° S 21:31:42 49° W 21:36:34 10° NNW
SL-19 R/B 4.4 21:26:30 10° NNE 21:31:45 44° E 21:32:09 44° ESE
Cosmos 1606 Rocket 3.4 21:34:00 60° SSE 21:34:42 73° E 21:39:08 10° NNE
Cosmos 1802 Rocket 4.0 21:29:34 15° S 21:35:00 85° E 21:41:29 10° N
MetOp-A 4.0 21:34:09 43° SSE 21:35:59 79° ENE 21:41:22 10° NNW
SL-08 R/B 4.4 21:35:57 36° SSE 21:38:29 64° E 21:44:36 10° NNE
Cosmos 1898 Rocket 4.3 21:35:43 10° NNW 21:40:49 48° WSW 21:43:26 26° SSW
Cosmos 1743 3.0 21:40:01 44° SW 21:41:04 65° W 21:44:58 10° N
Cosmos 1763 Rocket 3.3 21:43:23 49° S 21:44:44 74° ESE 21:49:49 10° NNE
Cosmos 1125 Rocket 4.0 21:42:06 10° N 21:47:03 42° ENE 21:47:16 42° ENE
Lacrosse 5 1.8 21:42:21 10° NW 21:47:24 72° SW 21:48:07 61° S
Tiangong 1 3.0 21:46:23 10° W 21:47:55 26° W 21:47:55 26° W
Cosmos 2016 Rocket 3.9 21:47:11 27° S 21:50:42 87° W 21:56:57 10° N
Cosmos 1697 Rocket 3.4 21:46:43 10° SW 21:52:14 54° WNW 21:57:48 10° NNE
SPOT 5 3.2 21:50:56 44° SSW 21:52:24 65° WSW 21:57:15 10° NNW
Cosmos 1726 Rocket 3.6 21:58:23 71° WSW 21:58:36 73° W 22:03:00 10° N
SL-16 R/B 3.4 22:00:58 27° ENE 22:00:58 27° ENE 22:03:54 10° NE
SL-08 RB Rocket 3.9 22:01:28 63° NE 22:01:28 63° NE 22:05:41 10° N
NOAA 11 4.0 22:00:38 68° SE 22:01:19 82° ENE 22:06:49 10° NNW
USA 215 3.6 22:00:24 40° E 22:02:32 57° NNE 22:08:55 10° NW
Cosmos 1842 4.0 22:01:21 10° N 22:04:21 50° NNW 22:04:21 50° NNW
Lacrosse 5 rocket 3.8 22:04:37 10° WSW 22:05:31 11° WSW 22:05:31 11° WSW
Cosmos 841 Rocket 3.4 22:05:13 57° SSW 22:06:19 82° WNW 22:11:35 10° NNE
Landsat 7 4.3 22:12:15 51° NNE 22:12:15 51° NNE 22:16:08 10° N
ARGOS 3.0 22:12:12 75° SSW 22:12:36 82° WSW 22:18:01 10° NNW
Cosmos 1980 Rocket 2.7 22:09:13 10° SW 22:14:47 59° WNW 22:20:26 10° NNE
Cosmos 1864 Rocket 4.4 22:17:10 56° SSW 22:18:33 81° W 22:24:43 10° N
Tsikada Rocket 4.1 22:15:53 10° N 22:22:19 77° W 22:23:28 61° SSW
H-2A R/B 4.0 22:23:39 20° WSW 22:24:13 21° W 22:27:22 10° NW
Meteor 2-5 Rocket 4.3 22:18:38 10° N 22:23:48 49° NE 22:23:48 49° NE
Meteor 1-15 Rocket 4.4 22:24:50 64° SW 22:25:42 76° W 22:31:36 10° N
Terra 2.7 22:28:04 43° NNE 22:28:04 43° NNE 22:31:28 10° N
Milstar 3 Cent rocket 4.5 22:17:51 10° W 22:32:40 35° SSW 22:34:13 33° S
Cosmos 2263 Rocket 2.7 22:37:17 10° NNW 22:41:51 52° NNE 22:41:51 52° NNE
Cosmos 2346 Rocket 4.4 22:36:55 10° N 22:42:47 78° NNE 22:42:47 78° NNE
Cosmos 2322 Rocket 2.6 22:48:04 55° N 22:48:04 55° N 22:52:28 10° NNE
H-2A R/B 2.7 22:48:51 51° NW 22:48:51 51° NW 22:52:36 10° NNW
Cosmos 2278 Rocket 4.2 23:24:03 10° N 23:27:34 18° NE 23:27:34 18° NE
SL-16 R/B 3.6 23:42:47 32° WNW 23:42:49 32° NW 23:47:55 10° N
USA 215 4.3 23:47:44 35° W 23:47:44 35° W 23:51:53 10° WNW
